Погода в Песчаном

Россия / Республика Крым     44°50′35″N   33°36′24″E
темп.,
°C
ветер,
м/с
пор.,
м/с
влажн.,
%
обл.,
%
осадки,
мм/ч
давл.,
гПа
погр.,
м
30 ноября, вт
вт3000:00+13зюз91287100 1.8 1000637
03:00+12юз91386100 2.8 1002786
06:00+12зюз78730 1.1 1003902
09:00+12юз677244 1.1 1004866
12:00+12ююв446198 0.0 1001748
15:00+11ююв2376100 1.5 997320
18:00+11ю61076100 2.6 994978
21:00+5с161797100 8.3 994756
1 декабря, ср
ср100:00+5ссз141695100 9.1 10021077
03:00+8сз1113585 9.9 10061520
06:00+8з101163100 0.1 10071599
09:00+9зюз121357100 0.3 10082061
12:00+9зюз131460100 0.3 10072072
15:00+9з13146196 0.6 10071947
18:00+9зсз9105927 0.1 10091572
21:00+10з795489 0.3 10111668
2 декабря, чт
чт200:00+10з885496 0.2 10121517
03:00+10юз886181 0.3 10131480
06:00+10юз886117 0.1 10131272
09:00+11ююз910675 0.1 10141185
12:00+11ююз10116710 0.0 10141135
15:00+12ююз1112754 0.0 10131016
18:00+12ю1114691 0.0 1013963
21:00+12ю1215687 0.0 10131046
3 декабря, пт
пт300:00+12ю101468100 0.0 1013823
03:00+12ю9137142 0.0 1013525
06:00+11ююв9147034 0.0 1012428
09:00+13ююв101662100 0.0 1012531
12:00+14ю1318634 0.0 1011786
15:00+14ююз1218685 0.0 1011721
18:00+13ююз111671100 0.0 1011584
21:00+14ююз10157150 0.2 1012488
4 декабря, сб
сб400:00+13ю91475100 0.3 1012413
03:00+13ю81375100 0.8 1011342
06:00+13ю6975100 0.2 1011251
09:00+13ююв5671100 0.2 100998
12:00+15ююв4661100 0.0 100792
15:00+14ююз91167100 0.0 1006360
18:00+13ю81273100 0.1 1005545
21:00+12ю81184100 0.3 1004614